CW1708 Weather Reports


time (UTC)temp
F
wind
direction
speed
knots
gust
knots
rain 1hr
in
rain 24hr
in
rain mn
in
humidity
%
barometer
mb
20210620102758 64 249 0.0 0.0 0.00 0.01 0.00 96 986.3
20210620102256 64 249 0.0 0.0 0.00 0.01 0.00 96 986.3
20210620101756 63 249 0.0 0.0 0.00 0.01 0.00 96 986.2
20210620101255 63 249 0.0 0.0 0.00 0.01 0.00 96 986.2
20210620100757 63 249 0.0 0.0 0.00 0.01 0.00 95 986.1
20210620100257 63 249 0.0 0.0 0.00 0.01 0.00 95 986.1
20210620095756 63 249 0.0 0.0 0.00 0.01 0.00 95 986.0
20210620095256 63 249 0.0 0.0 0.00 0.01 0.00 95 986.1
20210620094756 63 249 0.0 0.9 0.00 0.01 0.00 95 986.1
20210620094258 63 249 0.0 0.9 0.00 0.01 0.00 95 986.1
20210620093757 63 249 0.0 0.0 0.00 0.01 0.00 95 986.2
20210620093256 63 249 0.0 0.0 0.00 0.01 0.00 95 986.2
20210620092755 63 249 0.0 0.0 0.00 0.01 0.00 95 986.2
20210620092256 63 249 0.0 0.0 0.00 0.01 0.00 95 986.2
20210620091756 63 249 0.0 0.0 0.00 0.01 0.00 95 986.3
20210620091257 63 249 0.0 0.0 0.00 0.01 0.00 95 986.3
20210620090755 63 249 0.0 0.0 0.00 0.01 0.00 95 986.3
20210620090255 63 249 0.0 0.0 0.00 0.01 0.00 95 986.4
20210620085757 63 249 0.0 0.0 0.00 0.01 0.00 95 986.4
20210620085257 63 249 0.0 0.0 0.00 0.01 0.00 95 986.4
20210620084757 63 249 0.0 0.0 0.00 0.01 0.00 95 986.3
20210620084256 63 249 0.0 0.0 0.00 0.01 0.00 95 986.3
20210620083757 63 249 0.0 0.0 0.00 0.01 0.00 95 986.2
20210620083256 63 249 0.0 0.0 0.00 0.01 0.00 95 986.1
20210620082756 63 249 0.0 0.0 0.00 0.01 0.00 95 986.2
20210620082255 63 249 0.0 0.0 0.00 0.01 0.00 95 986.2
20210620081755 63 249 0.0 0.0 0.00 0.01 0.00 95 986.2
20210620081256 63 249 0.0 0.0 0.00 0.01 0.00 95 986.0
20210620080756 63 249 0.0 0.0 0.00 0.01 0.00 95 986.0
20210620080255 63 249 0.0 0.0 0.00 0.01 0.00 95 985.9
20210620075756 63 249 0.0 0.0 0.00 0.01 0.00 94 985.8
20210620075259 63 249 0.0 0.0 0.00 0.01 0.00 94 985.8
20210620074801 63 249 0.0 0.0 0.00 0.01 0.00 94 985.7
20210620074255 63 249 0.0 0.0 0.00 0.02 0.00 94 985.7
20210620073756 63 249 0.0 0.0 0.00 0.02 0.00 94 985.7
20210620073256 63 249 0.0 0.0 0.00 0.02 0.00 94 985.7
20210620072756 63 249 0.0 0.0 0.00 0.02 0.00 94 985.5
20210620072300 63 249 0.0 0.0 0.00 0.02 0.00 94 985.5
20210620071751 63 249 0.0 0.0 0.00 0.02 0.00 94 985.5
20210620071251 63 249 0.0 0.0 0.00 0.02 0.00 94 985.7
20210620070750 64 249 0.0 0.0 0.00 0.02 0.00 94 985.5
20210620070249 64 249 0.0 0.0 0.00 0.02 0.00 94 985.4
20210620065750 64 249 0.0 0.0 0.00 0.02 0.00 94 985.4
20210620065250 64 249 0.0 0.0 0.00 0.02 0.00 94 985.5
20210620064749 64 249 0.0 0.0 0.00 0.02 0.00 94 985.7
20210620064243 64 249 0.0 0.9 0.00 0.02 0.00 94 985.8
20210620063739 64 249 0.0 0.9 0.00 0.02 0.00 94 985.8
20210620063242 64 249 0.0 0.0 0.00 0.02 0.00 94 985.9
20210620062741 64 249 0.0 0.0 0.00 0.03 0.00 94 985.8
20210620062236 64 249 0.0 0.0 0.00 0.03 0.00 94 985.7
20210620061736 64 249 0.0 0.0 0.00 0.04 0.00 93 985.7
20210620061235 64 249 0.0 0.0 0.00 0.07 0.00 93 985.7
20210620060733 64 249 0.0 0.0 0.00 0.10 0.00 93 985.7
20210620060237 64 249 0.0 0.0 0.00 0.10 0.00 93 985.7
20210620055737 64 249 0.0 0.0 0.00 0.10 0.00 93 985.7
20210620055239 64 249 0.0 0.0 0.00 0.10 0.00 93 985.5
20210620054731 64 249 0.0 0.0 0.00 0.10 0.00 93 985.7
20210620054229 64 249 0.0 0.0 0.00 0.10 0.00 93 985.5
20210620053732 64 249 0.0 0.0 0.00 0.10 0.00 93 985.4
20210620053229 64 249 0.0 0.0 0.00 0.10 0.00 93 985.4
20210620052728 64 249 0.0 0.0 0.00 0.10 0.00 93 985.7
20210620052228 64 249 0.0 0.0 0.00 0.10 0.00 93 985.7
20210620051727 64 249 0.0 0.0 0.00 0.10 0.00 93 985.5
20210620051228 64 249 0.0 0.0 0.00 0.10 0.00 93 985.7
20210620050725 64 249 0.0 0.0 0.00 0.10 0.00 93 985.8
20210620050223 64 249 0.0 0.0 0.00 0.10 0.00 92 985.8
20210620045724 64 249 0.0 0.0 0.00 0.10 0.00 93 985.9
20210620045226 65 249 0.0 0.0 0.00 0.10 0.00 92 986.1
20210620044724 65 249 0.0 0.0 0.00 0.10 0.00 92 986.1
20210620044215 65 249 0.0 0.0 0.00 0.10 0.00 92 986.2
20210620043716 65 249 0.0 0.0 0.00 0.10 0.00 92 986.1
20210620043215 65 249 0.0 0.0 0.00 0.10 0.00 92 986.1
20210620042711 65 249 0.0 0.0 0.00 0.10 0.00 92 985.9
20210620042211 65 249 0.0 0.0 0.00 0.10 0.00 92 986.0
20210620041711 65 249 0.0 0.0 0.00 0.10 0.00 92 986.1
20210620041211 65 249 0.0 0.0 0.00 0.10 0.00 92 986.2
20210620040707 65 249 0.0 0.0 0.00 0.10 0.00 92 986.1
20210620040203 65 249 0.0 0.0 0.00 0.10 0.00 92 986.1
20210620035700 65 249 0.0 0.0 0.00 0.10 0.10 92 986.2
20210620035201 65 249 0.0 0.0 0.00 0.10 0.10 92 986.1
20210620034702 65 249 0.0 0.0 0.00 0.10 0.10 92 986.1
20210620034200 66 249 0.0 0.0 0.00 0.10 0.10 92 986.1
20210620033700 66 249 0.0 0.0 0.00 0.10 0.10 92 986.1
20210620033203 66 249 0.0 0.0 0.00 0.10 0.10 92 986.2
20210620032701 66 249 0.0 0.0 0.00 0.10 0.10 92 986.1
20210620032200 66 249 0.0 0.0 0.00 0.10 0.10 92 986.1
20210620031701 66 249 0.0 0.0 0.00 0.10 0.10 91 986.2
20210620031201 66 249 0.0 0.0 0.00 0.10 0.10 91 986.3
20210620030702 66 249 0.0 0.0 0.00 0.10 0.10 91 986.3
20210620030201 66 249 0.0 0.0 0.00 0.10 0.10 91 986.3
20210620025701 66 249 0.0 0.0 0.00 0.10 0.10 91 986.4
20210620025202 66 249 0.0 0.0 0.00 0.10 0.10 91 986.5
20210620024700 66 249 0.0 0.0 0.00 0.10 0.10 91 986.5
20210620024205 67 249 0.0 0.0 0.00 0.10 0.10 91 986.6
20210620023701 67 249 0.0 0.0 0.00 0.10 0.10 91 986.7
20210620023202 67 249 0.0 0.0 0.00 0.10 0.10 91 986.6
20210620022702 67 249 0.0 0.0 0.00 0.10 0.10 91 986.6
20210620022204 67 249 0.0 0.0 0.00 0.10 0.10 91 986.6
20210620021703 67 249 0.0 0.0 0.00 0.10 0.10 91 986.7
20210620021202 67 249 0.0 0.0 0.00 0.10 0.10 91 986.6
20210620020701 67 249 0.0 0.0 0.00 0.10 0.10 90 986.6
20210620020200 67 249 0.0 0.0 0.00 0.10 0.10 90 986.6
20210620015659 67 249 0.0 0.0 0.00 0.10 0.10 90 986.5
20210620015156 67 249 0.0 0.0 0.00 0.10 0.10 90 986.3
20210620014652 68 249 0.0 0.0 0.00 0.10 0.10 90 986.3
20210620014151 68 249 0.0 0.0 0.00 0.10 0.10 90 986.4
20210620013648 68 249 0.0 0.0 0.00 0.10 0.10 90 986.2
20210620013148 68 249 0.0 0.0 0.00 0.10 0.10 90 986.2
20210620012647 68 249 0.0 0.0 0.00 0.10 0.10 89 986.1
20210620012144 68 249 0.0 0.0 0.00 0.10 0.10 89 986.0
20210620011642 68 249 0.0 0.9 0.00 0.10 0.10 89 986.0
20210620011140 68 249 0.0 0.9 0.00 0.10 0.10 89 986.1
20210620010638 68 249 0.0 0.9 0.00 0.10 0.10 89 985.9
20210620010138 69 249 0.0 0.9 0.00 0.10 0.10 88 985.8
20210620005638 69 249 0.0 0.0 0.00 0.10 0.10 88 986.1
20210620005139 69 249 0.0 0.0 0.00 0.10 0.10 87 986.1
20210620004633 69 249 0.0 0.9 0.00 0.10 0.10 87 986.0
20210620004134 69 249 0.0 0.9 0.00 0.10 0.10 87 985.8
20210620003632 69 249 0.0 0.9 0.00 0.10 0.10 87 985.5
20210620003132 70 249 0.0 0.9 0.00 0.10 0.10 86 985.4
20210620002633 70 249 0.0 0.9 0.00 0.10 0.10 87 985.4
20210620002132 70 249 0.0 0.9 0.00 0.10 0.10 86 985.3
20210620001632 71 249 0.0 0.9 0.00 0.10 0.10 86 985.3
20210620001134 71 249 0.0 0.9 0.00 0.10 0.10 85 985.2
20210620000632 71 249 0.0 0.9 0.00 0.10 0.10 85 985.1
20210620000133 71 249 0.0 1.7 0.00 0.10 0.10 84 985.1
20210619235633 71 249 0.0 1.7 0.00 0.10 0.10 83 985.1
20210619235132 71 250 0.0 1.7 0.00 0.10 0.10 83 985.1
20210619234632 71 242 0.0 0.9 0.00 0.10 0.10 83 985.0
20210619234137 71 242 0.0 0.9 0.00 0.10 0.10 83 985.0
20210619233633 71 242 0.0 0.9 0.00 0.10 0.10 83 984.9
20210619233132 72 242 0.0 0.9 0.00 0.10 0.10 83 984.8
20210619232634 72 242 0.0 0.9 0.00 0.10 0.10 82 984.8
20210619232132 72 242 0.0 2.6 0.00 0.10 0.10 82 984.9
20210619231632 72 240 0.0 2.6 0.00 0.10 0.10 82 984.9
20210619231133 72 272 0.0 1.7 0.00 0.10 0.10 82 984.8
20210619230630 72 207 0.0 3.5 0.00 0.10 0.10 82 984.8
20210619230131 73 251 0.0 4.3 0.00 0.10 0.10 83 984.8
20210619225630 73 286 0.9 4.3 0.00 0.10 0.10 83 984.8
20210619225130 73 309 0.9 5.2 0.00 0.10 0.10 83 984.7
20210619224631 74 262 0.9 5.2 0.00 0.10 0.10 83 984.7
20210619224131 74 241 0.9 3.5 0.00 0.10 0.10 83 984.7
20210619223631 74 238 0.9 3.5 0.00 0.10 0.10 83 984.6
20210619223132 74 340 0.9 10.4 0.00 0.10 0.10 83 984.6
20210619222631 74 313 0.9 10.4 0.00 0.10 0.10 83 984.6
20210619222131 74 274 0.9 5.2 0.00 0.10 0.10 83 984.6
20210619221631 74 290 0.0 5.2 0.00 0.10 0.10 83 984.5
20210619221131 74 284 0.9 4.3 0.00 0.10 0.10 84 984.4
20210619220631 74 281 0.9 6.1 0.00 0.10 0.10 84 984.4
20210619220131 74 305 0.9 6.1 0.00 0.10 0.10 84 984.3
20210619215628 74 318 0.0 3.5 0.00 0.10 0.10 85 984.2
20210619215129 74 256 0.0 3.5 0.00 0.10 0.10 86 984.1
20210619214628 74 256 0.0 3.5 0.00 0.10 0.10 86 984.3
20210619214133 74 282 0.0 1.7 0.00 0.10 0.10 86 984.1
20210619213629 74 297 0.0 3.5 0.01 0.10 0.10 86 983.9
20210619213130 74 297 0.9 7.0 0.01 0.10 0.10 85 983.9
20210619212628 74 269 0.9 7.0 0.01 0.10 0.10 85 983.9
20210619212128 74 275 0.0 3.5 0.01 0.10 0.10 84 983.8
20210619211629 74 260 0.9 3.5 0.01 0.10 0.10 83 984.1
20210619211128 74 281 0.0 2.6 0.01 0.10 0.10 83 984.3
20210619210631 74 309 0.0 2.6 0.01 0.10 0.10 83 984.5
20210619210128 74 316 0.0 2.6 0.01 0.10 0.10 83 984.6
20210619205629 75 263 0.0 4.3 0.01 0.10 0.10 82 984.6
20210619205129 75 263 0.0 4.3 0.01 0.10 0.10 80 984.5
20210619204629 75 264 0.9 4.3 0.01 0.10 0.10 79 984.5
20210619204128 75 244 0.9 5.2 0.01 0.10 0.10 78 984.6
20210619203629 76 240 0.9 5.2 0.00 0.09 0.09 78 984.5
20210619203128 76 322 1.7 5.2 0.00 0.09 0.09 76 984.6
20210619202629 77 297 1.7 7.0 0.00 0.09 0.09 74 984.6
20210619202129 78 257 0.9 7.0 0.00 0.09 0.09 74 984.6
20210619201629 78 296 0.0 6.1 0.00 0.09 0.09 77 984.6
20210619201129 78 273 0.0 1.7 0.00 0.09 0.09 76 984.4
20210619200629 79 273 0.0 1.7 0.00 0.09 0.09 74 984.2
20210619200130 80 273 0.0 2.6 0.00 0.09 0.09 71 984.2
20210619195631 81 266 0.0 2.6 0.00 0.09 0.09 68 984.3
20210619195129 82 295 0.0 2.6 0.00 0.09 0.09 67 984.3
20210619194630 82 301 0.9 5.2 0.00 0.09 0.09 64 984.2
20210619194131 83 277 0.9 5.2 0.00 0.09 0.09 61 984.1
20210619193628 83 290 0.9 3.5 0.00 0.09 0.09 61 984.1
20210619193129 83 292 0.0 2.6 0.00 0.09 0.09 63 984.1
20210619192629 83 322 0.0 2.6 0.00 0.09 0.09 61 984.0
20210619192129 83 296 0.0 4.3 0.00 0.09 0.09 60 984.0
20210619191627 84 292 0.0 4.3 0.00 0.09 0.09 59 984.1
20210619191126 84 290 0.9 2.6 0.00 0.09 0.09 61 984.1
20210619190626 84 290 0.9 2.6 0.00 0.09 0.09 60 984.1
20210619190127 85 313 0.9 3.5 0.00 0.09 0.09 60 984.2
20210619185626 84 261 0.9 4.3 0.00 0.09 0.09 58 984.3
20210619185127 85 297 0.9 6.1 0.00 0.09 0.09 57 984.2
20210619184626 86 325 0.9 6.1 0.00 0.09 0.09 56 984.1
20210619184127 87 306 0.9 7.0 0.00 0.09 0.09 58 984.1
20210619183628 85 305 1.7 7.0 0.00 0.09 0.09 58 984.3
20210619183127 85 296 1.7 7.0 0.00 0.09 0.09 59 984.4
20210619182628 85 288 1.7 6.1 0.00 0.09 0.09 58 984.3
20210619182128 85 327 0.9 6.1 0.00 0.09 0.09 58 984.4
20210619181625 84 267 0.9 4.3 0.00 0.09 0.09 61 984.5
20210619181124 84 267 1.7 5.2 0.00 0.09 0.09 60 984.5
20210619180623 84 238 0.9 5.2 0.00 0.09 0.09 61 984.5
20210619180123 84 273 0.0 4.3 0.00 0.09 0.09 62 984.5
20210619175624 83 259 0.0 1.7 0.00 0.09 0.09 64 984.5
20210619175124 84 251 0.9 5.2 0.00 0.09 0.09 60 984.7
20210619174623 84 281 1.7 6.1 0.00 0.09 0.09 62 984.8
20210619174125 84 265 1.7 6.1 0.00 0.09 0.09 61 985.0
20210619173625 85 321 1.7 7.0 0.00 0.09 0.09 61 985.0
20210619173122 85 267 1.7 7.0 0.00 0.09 0.09 60 985.0
20210619172618 85 275 1.7 5.2 0.00 0.09 0.09 62 985.0
20210619172119 85 298 0.9 5.2 0.00 0.09 0.09 63 985.1
20210619171617 85 278 0.9 4.3 0.00 0.09 0.09 64 985.1
20210619171117 85 20 0.9 4.3 0.00 0.09 0.09 65 985.1
20210619170618 85 319 0.9 4.3 0.00 0.09 0.09 64 985.1
20210619170116 85 316 1.7 6.1 0.00 0.09 0.09 67 985.2
20210619165614 84 244 1.7 6.1 0.00 0.09 0.09 65 985.1
20210619165119 85 253 0.9 4.3 0.00 0.09 0.09 67 985.2
20210619164615 85 313 1.7 6.1 0.00 0.09 0.09 67 985.2
20210619164116 84 320 1.7 6.1 0.00 0.09 0.09 67 985.2
20210619163614 84 245 1.7 6.1 0.00 0.09 0.09 67 985.2
20210619163118 83 205 1.7 6.1 0.00 0.09 0.09 69 985.2
20210619162613 84 321 0.9 5.2 0.00 0.09 0.09 70 985.2
20210619162110 83 285 0.9 4.3 0.00 0.09 0.09 70 985.2
20210619161610 83 294 0.9 4.3 0.00 0.09 0.09 71 985.1
20210619161109 82 315 1.7 4.3 0.00 0.09 0.09 71 985.2
20210619160610 82 290 1.7 5.2 0.00 0.09 0.09 70 985.3
20210619160111 82 292 0.9 5.2 0.00 0.09 0.09 72 985.3
20210619155608 81 296 0.9 4.3 0.00 0.09 0.09 74 985.1
20210619155109 81 301 0.9 5.2 0.00 0.09 0.09 74 985.1
20210619154608 80 291 1.7 5.2 0.00 0.09 0.09 73 985.1
20210619154107 80 257 1.7 5.2 0.00 0.09 0.09 73 985.1
20210619153611 80 269 0.9 4.3 0.00 0.09 0.09 74 985.2
20210619153104 80 264 0.9 5.2 0.00 0.09 0.09 74 985.2
20210619152602 80 258 1.7 7.0 0.00 0.09 0.09 72 985.3
20210619152059 81 233 1.7 7.0 0.00 0.09 0.09 73 985.1
20210619151559 81 284 1.7 7.0 0.00 0.09 0.09 73 984.8
20210619151059 81 302 0.9 5.2 0.00 0.09 0.09 75 985.0
20210619150559 80 222 0.9 5.2 0.00 0.09 0.09 72 984.9
20210619150058 80 263 0.9 5.2 0.00 0.09 0.09 75 984.6
20210619145559 80 240 0.9 5.2 0.00 0.09 0.09 77 984.7
20210619145058 80 255 0.9 5.2 0.00 0.09 0.09 74 984.7
20210619144559 80 287 0.9 4.3 0.00 0.09 0.09 74 984.8
20210619144058 79 306 0.9 6.1 0.00 0.09 0.09 75 985.0
20210619143558 79 281 0.9 6.1 0.00 0.09 0.09 76 985.0
20210619143101 79 270 0.9 5.2 0.00 0.09 0.09 75 985.0
20210619142559 79 296 0.9 5.2 0.00 0.09 0.09 77 985.1
20210619142055 78 259 0.9 5.2 0.00 0.09 0.09 78 985.2
20210619141553 78 302 0.9 5.2 0.00 0.09 0.09 77 985.2
20210619141054 78 233 0.9 6.1 0.00 0.09 0.09 80 985.1
20210619140554 77 304 0.9 6.1 0.00 0.09 0.09 81 985.1
20210619140055 76 316 0.0 4.3 0.00 0.09 0.09 79 985.2
20210619135553 76 281 0.0 2.6 0.00 0.09 0.09 81 985.3
20210619135053 75 302 0.9 3.5 0.00 0.09 0.09 83 985.2
20210619134549 74 248 0.9 5.2 0.00 0.09 0.09 83 985.0
20210619134052 74 265 0.9 5.2 0.00 0.09 0.09 84 985.0
20210619133550 73 257 0.9 5.2 0.00 0.09 0.09 85 985.0
20210619133051 73 308 0.9 5.2 0.00 0.09 0.09 85 985.2
20210619132548 73 271 0.0 4.3 0.00 0.09 0.09 88 985.2
20210619132049 72 288 0.0 3.5 0.00 0.09 0.09 89 985.4
20210619131548 72 313 0.0 3.5 0.00 0.09 0.09 90 985.4
20210619131045 72 273 0.0 1.7 0.00 0.09 0.09 92 985.5
20210619130544 71 273 0.9 3.5 0.00 0.09 0.09 94 985.4
20210619130045 70 273 0.9 3.5 0.00 0.09 0.09 94 985.4
20210619125547 69 286 0.0 3.5 0.00 0.09 0.09 95 985.3
20210619125044 69 280 0.9 5.2 0.00 0.09 0.09 96 985.2
20210619124541 69 302 0.9 5.2 0.00 0.09 0.09 96 985.3
20210619124042 69 263 0.9 4.3 0.00 0.09 0.09 96 985.2
20210619123537 69 317 0.9 5.2 0.00 0.09 0.09 96 985.3
20210619123037 69 275 0.9 5.2 0.00 0.09 0.09 96 985.3
20210619122538 68 301 0.9 4.3 0.00 0.09 0.09 96 985.2
20210619122035 68 289 0.0 4.3 0.00 0.09 0.09 96 985.2
20210619121536 68 246 0.9 4.3 0.00 0.09 0.09 96 985.1
20210619121033 68 292 0.9 4.3 0.00 0.09 0.09 96 985.2
20210619120529 68 295 0.0 1.7 0.00 0.09 0.09 96 985.3
20210619120030 67 280 0.0 4.3 0.00 0.09 0.09 96 985.1
20210619115528 67 280 0.9 4.3 0.00 0.09 0.09 96 985.1
20210619115031 67 300 0.0 4.3 0.00 0.09 0.09 96 985.0
20210619114529 67 319 0.0 0.9 0.00 0.09 0.09 96 985.0
20210619114029 67 319 0.0 1.7 0.00 0.09 0.09 96 984.9
20210619113529 67 319 0.0 1.7 0.00 0.09 0.09 96 985.0
20210619113028 67 289 0.0 1.7 0.00 0.09 0.09 96 985.0
20210619112526 66 158 0.0 0.9 0.00 0.09 0.09 96 984.9
20210619112027 66 158 0.0 0.0 0.00 0.09 0.09 96 984.9
20210619111524 66 158 0.0 0.0 0.00 0.09 0.09 96 984.8
20210619111024 66 158 0.0 0.0 0.00 0.09 0.09 96 984.8
20210619110525 66 158 0.0 0.0 0.00 0.09 0.09 96 984.7
20210619110023 66 158 0.0 0.0 0.00 0.09 0.09 96 984.8
20210619105524 66 158 0.0 0.0 0.00 0.09 0.09 96 984.7
20210619105017 65 158 0.0 0.0 0.00 0.09 0.09 96 984.8
20210619104517 65 158 0.0 0.0 0.00 0.09 0.09 96 984.8
20210619104020 65 158 0.0 0.0 0.00 0.09 0.09 96 984.7
20210619103518 65 158 0.0 0.0 0.00 0.09 0.09 96 984.6